Location: Quispamsis
(45.4447°N, 65.9414°W)
Time: 02:26:44
(UTC-03:00)

Daily predictions for brighter satellites

Satellite Brightness Start Highest point End
(mag) Time Altitude Azimuth Time Altitude Azimuth Time Altitude Azimuth
ATLAS 5 CENTAUR R/B 3.9 00:00:56 10° WNW 00:05:40 24° WSW 00:05:54 24° WSW
Cosmos 2333 4.5 00:05:38 60° W 00:06:15 65° WNW 00:12:01 10° NNE
Cosmos 2237 Rocket 2.9 00:14:49 44° ENE 00:14:49 44° ENE 00:18:54 10° NNE
Cosmos 2278 Rocket 2.3 00:09:10 10° NNW 00:14:18 74° NNW 00:14:18 74° NNW
Cosmos 2315 Rocket 4.4 00:18:38 50° ENE 00:18:38 50° ENE 00:24:00 10° NNE
Meteor 1-27 Rocket 4.0 00:19:29 62° WNW 00:19:29 62° WNW 00:25:02 10° N
Cosmos 1937 Rocket 4.1 00:14:58 10° NNW 00:19:22 52° NNE 00:19:22 52° NNE
Meteor 1-5 Rocket 4.3 00:18:16 10° N 00:23:15 72° NNW 00:23:15 72° NNW
Cosmos 1553 Rocket 4.4 00:23:20 51° WSW 00:24:08 54° WNW 00:30:16 10° N
Cosmos 1844 Rocket 3.9 00:21:29 10° NW 00:25:44 31° W 00:25:44 31° W
Okean 1 Rocket 4.4 00:22:15 10° NNW 00:25:05 38° NNW 00:25:05 38° NNW
Cosmos 1898 Rocket 4.2 00:31:56 10° NNW 00:35:51 51° NW 00:35:51 51° NW
CZ-2C R/B 3.5 00:32:00 10° NNE 00:35:56 42° NE 00:35:56 42° NE
ALOS 2 4.1 00:41:34 35° N 00:41:34 35° N 00:44:12 10° N
NOSS 0 Rocket 4.0 00:45:06 72° NW 00:45:06 72° NW 00:51:06 10° NNE
Cosmos 2219 Rocket 2.8 00:45:20 48° WNW 00:45:32 48° WNW 00:51:00 10° NNE
Cosmos 2184 Rocket 4.5 00:45:29 10° N 00:51:30 50° ENE 00:51:30 50° ENE
NOSS 3-1 (C) 3.8 00:56:18 56° WNW 00:56:56 59° NW 01:03:33 10° NE
Cosmos 1709 Rocket 4.2 00:53:47 10° NNW 00:59:45 63° WNW 00:59:45 63° WNW
Cosmos 2297 4.2 00:59:14 10° NNW 01:03:45 56° NW 01:03:45 56° NW
NOSS 3-1 (A) 3.7 01:10:33 63° WNW 01:10:45 63° NW 01:17:24 10° NE
USA 267 4.4 01:06:10 10° E 01:12:10 40° NNE 01:18:09 10° NW
ATLAS 2AS CENTAUR R/B 3.5 01:13:04 45° E 01:13:04 45° E 01:19:56 10° NE
Cosmos 2369 Rocket 3.9 01:09:05 10° N 01:13:44 26° NE 01:15:10 23° ENE
ATLAS CENTAUR R/B 3.9 01:24:18 17° NE 01:24:18 17° NE 01:25:17 10° NE
Cosmos 2285 Rocket 4.1 01:25:41 71° NW 01:25:41 71° NW 01:31:50 10° NNE
Cosmos 2074 Rocket 4.0 01:20:44 10° N 01:26:20 74° NNW 01:26:20 74° NNW
Cosmos 2154 Rocket 4.4 01:24:14 10° N 01:30:17 53° ENE 01:30:17 53° ENE
SL-16 R/B 2.6 01:33:19 61° N 01:33:19 61° N 01:38:03 10° NNE
Cosmos 1943 Rocket 4.2 01:36:12 10° N 01:40:42 23° NE 01:43:37 16° E
Cosmos 841 Rocket 4.3 01:42:10 48° N 01:42:10 48° N 01:46:01 10° NNE
Cosmos 540 Rocket 4.5 01:46:46 41° NE 01:46:46 41° NE 01:50:14 10° NNE
CZ-4C R/B 3.9 01:40:02 10° NW 01:44:55 32° W 01:44:55 32° W
Cosmos 2333 Rocket 4.0 01:46:51 21° WNW 01:48:34 24° NW 01:53:12 10° N
ATLAS 3B R/B 2.6 01:44:04 10° NW 01:50:57 76° NE 01:51:14 75° ENE
Cosmos 1607 4.0 01:49:58 10° NW 01:55:54 78° NNW 01:55:54 78° NNW
Cosmos 2237 Rocket 3.8 01:56:36 24° WNW 01:57:45 26° NW 02:02:30 10° N
Meteor 1-13 Rocket 4.5 02:00:47 70° N 02:00:47 70° N 02:06:02 10° N
USA 238 DEB 3.9 01:55:53 10° NW 02:02:58 70° NE 02:04:41 52° ESE
USA 238 3.9 01:55:59 10° NW 02:03:04 69° NE 02:04:50 51° ESE
Cosmos 962 Rocket 4.5 02:02:29 10° N 02:08:53 77° E 02:08:53 77° E
Meteor 2-4 Rocket 4.0 02:10:14 60° NNE 02:10:14 60° NNE 02:14:42 10° NNE
Meteor 1-19 Rocket 4.5 02:13:08 67° NW 02:13:08 67° NW 02:18:28 10° N
Cosmos 2181 Rocket 4.2 02:13:33 62° ESE 02:13:44 62° E 02:20:06 10° NNE
CZ-2C R/B 4.2 02:12:55 10° N 02:17:18 25° WNW 02:17:28 25° WNW
USA 215 3.1 02:14:40 10° NE 02:21:14 83° SE 02:21:27 82° S
H-2A R/B 4.4 02:18:00 10° N 02:19:46 25° N 02:19:46 25° N
Cosmos 1943 3.6 02:30:53 56° E 02:30:53 56° E 02:35:55 10° NNE
Cosmos 2263 4.3 02:29:21 10° NNW 02:35:09 70° ENE 02:35:27 69° E
SL-8 Rocket 3.9 02:30:14 10° N 02:36:25 77° E 02:36:47 74° ESE
NOSS 2-3 (D) 4.4 02:36:55 56° NNW 02:36:55 56° NNW 02:42:18 10° NNE
SL-08 R/B 4.1 02:43:02 45° ENE 02:43:09 45° ENE 02:47:41 10° N
Cosmos 1603 4.1 02:50:08 52° WNW 02:50:13 52° WNW 02:55:51 10° NNE
Cosmos 1461 4.2 02:46:28 10° NNW 02:49:47 39° NNE 02:49:47 39° NNE
Cosmos 44 4.3 02:48:04 10° NNW 02:52:11 38° NE 02:52:55 36° ENE
USA 267 3.2 02:48:11 10° ESE 02:54:44 85° NE 03:01:19 10° NW
Cosmos 2341 Rocket 4.4 02:50:46 10° NNW 02:56:23 48° W 02:56:23 48° W
Cosmos 2369 Rocket 2.7 02:52:38 10° NNW 02:56:56 48° WNW 02:56:56 48° WNW
PSLV R/B 4.4 02:54:12 10° N 02:57:58 49° NNW 02:57:58 49° NNW
NPP 3.9 02:53:51 10° NNE 02:59:10 56° E 02:59:31 55° ESE
ATLAS CENTAUR R/B 3.5 03:00:34 20° NW 03:00:34 20° NW 03:03:33 10° N
ADEOS Rocket 4.4 02:57:05 10° NE 03:02:14 30° E 03:05:03 22° SE
NOSS 3-4 (A) 4.1 03:01:44 39° SE 03:02:31 41° ESE 03:08:30 10° NE
NOSS 3-4 (C) 4.2 03:01:49 39° SE 03:02:38 40° ESE 03:08:37 10° NE
ATLAS 2AS CENTAUR R/B 3.5 03:00:28 38° W 03:03:21 54° NW 03:11:20 10° NE
Resurs 1-4 Rocket 3.3 03:10:36 10° NNE 03:15:21 34° E 03:16:58 28° SE
NOSS 3-2 (A) 3.9 03:09:07 10° NW 03:16:36 86° SW 03:24:44 10° SSE
Cosmos 773 Rocket 3.8 03:16:55 82° SSE 03:17:05 84° ESE 03:22:19 10° NNE
SL-16 R/B 4.3 03:15:11 13° WNW 03:17:27 16° NW 03:20:59 10° N
Meteor 1-16 4.5 03:12:26 10° NNW 03:18:03 86° W 03:18:34 74° S
CZ-2D R/B 3.3 03:13:39 10° NNE 03:18:32 35° E 03:20:13 29° SE
Cosmos 2228 3.9 03:16:28 10° NNW 03:19:37 42° NW 03:19:37 42° NW
SL-08 R/B 4.4 03:16:44 10° NNW 03:22:59 66° W 03:23:47 60° SW
Helios 1A Rocket 4.4 03:20:45 10° N 03:23:26 28° NW 03:23:26 28° NW
Cosmos 1943 Rocket 2.1 03:19:20 10° NNW 03:24:59 68° WSW 03:25:05 68° WSW
BREEZE M DEB (TANK) 4.3 03:08:54 10° WNW 03:28:20 52° SW 03:30:17 43° S
Cosmos 292 Rocket 3.7 03:29:11 73° WNW 03:29:13 73° WNW 03:34:06 10° NNE
Cosmos 1066 Rocket 3.9 03:28:32 69° S 03:29:14 88° E 03:34:37 10° N
Cosmos 1809 Rocket 4.4 03:26:25 10° NNW 03:32:26 59° W 03:33:11 55° WSW
Cosmos 1953 4.5 03:30:13 10° NNE 03:33:29 24° ENE 03:36:19 12° ESE
Cosmos 44 Rocket 3.6 03:31:27 10° NW 03:35:03 50° WNW 03:35:03 50° WNW
AQUA 3.6 03:32:04 10° NNE 03:36:52 83° WNW 03:37:13 76° SW
Spot 4 Rocket 4.3 03:32:01 10° NNE 03:37:09 60° ESE 03:38:32 44° SSE
ATLAS 3B R/B 4.1 03:35:51 10° WNW 03:38:26 19° W 03:38:26 19° W
Cosmos 1812 Rocket 3.4 03:41:09 10° N 03:45:35 88° WSW 03:45:53 77° S
ADEOS 3.9 03:40:47 10° NNE 03:45:58 61° ESE 03:47:46 39° SSE
Meteor 1-4 Rocket 2.7 03:45:22 10° N 03:48:54 75° N 03:48:54 75° N
CBERS-1 4.1 03:47:04 10° N 03:52:05 57° WNW 03:52:55 50° WSW
SL-16 R/B 2.4 03:49:25 32° S 03:52:30 80° WSW 03:58:43 10° NNW
Aureole 1 Rocket 3.3 03:52:28 53° SSW 03:53:46 89° WNW 03:58:13 10° NNE
IRS-1C 4.1 03:48:48 10° N 03:54:08 70° WNW 03:55:27 50° SW
UNKNOWN OBJECT B 4.2 03:50:53 10° NNE 03:54:31 34° E 03:56:04 25° SE
Cosmos 1680 Rocket 3.4 03:53:52 52° SSW 03:55:14 89° ESE 04:00:32 10° NNE
Cosmos 1821 Rocket 4.0 03:51:21 10° N 03:57:29 78° E 04:02:03 19° SSE
Cosmos 921 Rocket 4.5 03:53:40 10° N 03:57:52 38° ENE 04:02:05 10° SE
USA 161 3.8 03:57:07 18° ESE 03:58:31 25° ENE 04:00:59 10° NNE
Meteor 1-21 4.2 03:59:39 38° S 04:01:55 84° E 04:07:33 10° NNE
IRS-1D 3.5 03:56:57 10° NNE 04:02:10 87° ESE 04:04:07 40° SSW
USA 215 4.1 03:57:51 10° NE 04:03:57 44° NNW 04:08:47 16° W
Cosmos 2239 Rocket 4.4 04:02:58 10° N 04:09:10 85° W 04:13:32 20° S
Meteor 2-8 Rocket 4.4 04:07:06 32° S 04:10:06 85° W 04:16:18 10° N
GEOS 3 Rocket 3.7 04:06:09 10° NE 04:11:26 75° NW 04:13:30 38° SW
Cosmos 1656 Rocket 3.5 04:06:13 10° NNW 04:11:34 62° WSW 04:14:45 24° S
Cosmos 1535 Rocket 4.4 04:08:24 10° N 04:14:41 83° W 04:19:26 18° S
Cosmos 1626 Rocket 4.3 04:15:42 34° W 04:16:02 35° WNW 04:20:06 10° N
Lacrosse 5 rocket 3.3 04:14:44 18° SSE 04:16:41 24° SE 04:20:26 10° ENE
UNK 4.0 04:16:45 43° WSW 04:17:22 46° W 04:21:48 10° NNW
ARIANE 5 R/B 2.5 04:12:13 10° N 04:17:28 75° WNW 04:19:41 35° SSW
Cosmos 1605 Rocket 4.4 04:11:42 10° N 04:17:55 62° ENE 04:23:59 10° SSE
COSMOS 2455 2.8 04:13:25 10° NW 04:19:21 60° WSW 04:25:13 10° SSE
SL-27 R/B 2.8 04:19:08 43° SSE 04:20:01 60° ESE 04:23:35 10° NNE
Cosmos 1934 Rocket 4.0 04:17:08 10° N 04:23:26 86° W 04:29:46 10° S
Genesis I 3.2 04:19:36 10° NW 04:23:31 58° WSW 04:25:23 28° S
Cosmos 1371 Rocket 3.9 04:18:35 10° NNW 04:23:58 75° WSW 04:29:18 10° SSE
NOSS 3-2 (C) 4.2 04:17:56 10° NW 04:25:05 47° WSW 04:32:45 10° S
ADEOS II 4.1 04:20:56 10° NE 04:25:10 24° E 04:29:22 10° SSE
Cosmos 1825 Rocket 3.5 04:24:03 35° SSW 04:25:53 82° W 04:30:19 10° N
CZ-2D R/B 3.6 04:23:11 10° NNE 04:27:17 67° E 04:29:27 26° S
Okean O Rocket 3.8 04:24:35 10° NE 04:28:08 23° E 04:31:37 10° SE
RESURS DK-1 2.3 04:28:13 42° SW 04:29:30 74° WNW 04:33:39 10° NNE
Cosmos 1733 4.0 04:28:28 10° N 04:32:12 52° ENE 04:35:54 10° SSE
Cosmos 1805 3.4 04:29:56 10° NNW 04:33:46 51° W 04:34:50 38° SW
Cosmos 1271 Rocket 2.6 04:34:21 10° NNW 04:38:03 58° W 04:39:35 31° SSW
USA 267 3.9 04:32:36 10° S 04:38:12 30° SW 04:43:51 10° WNW
Cosmos 839 Rocket 4.3 04:32:54 10° NNW 04:39:11 79° NE 04:46:25 10° SE
CENTAUR R/B 3.1 04:35:37 10° NW 04:43:29 86° SW 04:51:55 10° SSE
COBE Rocket 4.2 04:39:57 10° N 04:44:54 51° WNW 04:47:36 25° SW
ADEOS Rocket 3.4 04:42:19 10° N 04:47:56 48° WNW 04:52:01 21° SW
Cosmos 1842 4.2 04:47:25 27° WSW 04:48:22 31° WNW 04:51:51 10° N
Tiangong 1 1.1 04:50:41 43° SSW 04:51:03 47° S 04:53:49 10° ESE
NOSS 3-4 (A) 4.1 04:49:10 20° WSW 04:53:21 47° NW 04:59:42 10° NNE
NOSS 3-4 (C) 4.1 04:49:15 20° WSW 04:53:27 47° NW 04:59:49 10° NNE
NOSS 2-2 (D) 3.8 04:51:47 21° SSW 04:54:24 62° ESE 04:59:03 10° NE
Resurs 1-4 Rocket 2.9 04:50:27 10° N 04:55:11 35° WNW 04:58:03 20° WSW
CZ-2D R/B 3.0 04:53:48 10° N 04:58:33 34° WNW 05:01:32 19° WSW
Cosmos 2098 Rocket 1.9 04:56:06 10° NNW 04:59:12 75° W 05:01:42 13° S
Cosmos 1544 4.4 04:56:58 10° NW 04:59:53 22° W 05:00:19 22° W
Abrixas 2.9 04:59:32 24° W 05:00:58 52° N 05:03:44 10° ENE
COSMOS 2406 3.6 04:57:46 20° SW 05:01:32 49° WNW 05:07:07 10° NNE
Cosmos 2082 Rocket 3.9 04:56:50 10° SSE 05:01:45 31° ESE 05:06:41 10° NE
MOZ.5/SAFIR/RUBIN 5/SL-8 4.2 04:59:03 14° SSW 05:02:45 40° W 05:07:10 10° NNW
CZ-4B R/B 4.1 05:01:34 10° NNE 05:06:47 47° E 05:11:54 10° S
Cosmos 1833 Rocket 4.4 05:02:40 10° SSE 05:07:30 31° ESE 05:12:21 10° NE
Cosmos 1953 3.3 05:06:30 10° NNW 05:09:54 28° W 05:12:00 18° SW
Cosmos 389 Rocket 2.6 05:07:57 10° NNW 05:11:34 58° W 05:15:06 10° S
NOSS 2-2 (C) 3.5 05:09:36 17° SW 05:12:43 89° WNW 05:17:32 10° NE
Cosmos 1842 Rocket 4.0 05:09:53 10° N 05:14:16 67° E 05:18:40 10° SSE
Meteor 1-16 Rocket 4.1 05:11:18 10° N 05:16:46 87° E 05:22:05 10° S
Cosmos 1656 4.2 05:11:44 10° NNW 05:17:09 62° ENE 05:22:30 10° SE
CZ-2C R/B 4.3 05:14:00 10° SSE 05:18:21 61° ENE 05:22:46 10° N
Cosmos 1758 Rocket 4.4 05:15:54 16° SW 05:18:48 33° WNW 05:22:45 10° N
Cosmos 1707 2.7 05:15:10 10° SSW 05:19:02 68° W 05:22:55 10° N
Cosmos 1470 3.2 05:15:24 10° NNW 05:19:04 40° W 05:22:44 10° SSW
Landsat 4 4.3 05:19:33 10° SSW 05:23:00 35° W 05:26:28 10° NNW
Cosmos 1727 Rocket 4.0 05:17:52 10° SSW 05:23:58 63° W 05:30:07 10° N
Cosmos-2242 3.5 05:20:52 10° NNW 05:25:01 41° W 05:29:09 10° SSW
PSLV R/B 3.9 05:22:15 10° NNE 05:26:39 69° E 05:30:58 10° S
USA 161 3.4 05:27:46 14° WSW 05:28:23 15° W 05:30:11 10° NW
UNKNOWN OBJECT B 4.3 05:25:47 10° NNW 05:28:51 22° WNW 05:31:32 12° WSW
Cosmos 2056 Rocket 4.5 05:25:52 10° NW 05:30:15 26° W 05:34:34 10° SSW
DNEPR-1 R/B 3.6 05:30:41 10° NW 05:34:49 56° WSW 05:39:10 10° SSE
Cosmos 2016 Rocket 4.4 05:28:53 10° N 05:35:06 69° E 05:41:22 10° SSE
Cosmos 921 Rocket 4.3 05:32:26 10° NW 05:35:56 23° W 05:39:27 10° SSW
SL-16 R/B 4.2 05:34:30 10° WSW 05:37:05 13° W 05:39:42 10° WNW
Meteor 1-24 Rocket 3.9 05:33:33 10° S 05:38:58 77° E 05:44:38 10° NNE
ERS-2 4.5 05:38:12 10° NE 05:41:19 25° E 05:44:25 10° SSE
Cosmos 2221 3.3 05:40:11 10° N 05:44:26 56° ENE 05:48:37 10° SSE
MOS 1 Rocket 4.2 05:41:02 10° N 05:44:42 28° WNW 05:48:26 10° SW
Cosmos 1802 Rocket 4.1 05:38:19 10° N 05:44:48 86° W 05:51:12 10° S
PSLV R/B 4.4 05:41:28 10° N 05:45:21 44° WNW 05:49:16 10° SW
CZ-4B R/B 3.2 05:42:19 10° N 05:46:27 56° WNW 05:50:45 10° SSW
EXPRESS MD2 3.0 05:45:16 10° WNW 05:49:55 61° SSW 05:52:33 10° SE
Cosmos 1378 3.7 05:50:17 10° SSW 05:53:48 38° WNW 05:57:20 10° N
IRS-1C Rocket 4.2 05:49:07 10° N 05:54:20 67° WNW 05:59:34 10° SSW
MTI 4.1 05:51:24 10° S 05:54:32 46° W 05:57:41 10° NNW
Lacrosse 5 rocket 1.8 05:51:00 10° WSW 05:55:40 66° NW 06:00:17 10° NE
